| time (UTC) | temp C | wind direction | speed KPH | gust KPH | rain 1hr cm | rain 24hr cm | rain mn cm | humidity % | barometer mb |
| 20260506162504 | 17 | 246 | 8.0 | 20.9 | 0.08 | 0.10 | 0.10 | 83 | 1008.4 |
| 20260506162004 | 17 | 241 | 9.7 | 24.1 | 0.10 | 0.10 | 0.10 | 83 | 1008.5 |
| 20260506161504 | 17 | 233 | 4.8 | 14.5 | 0.08 | 0.08 | 0.08 | 83 | 1008.6 |
| 20260506161004 | 17 | 246 | 4.8 | 14.5 | 0.08 | 0.08 | 0.08 | 82 | 1008.6 |
| 20260506160004 | 17 | 252 | 4.8 | 11.3 | 0.05 | 0.05 | 0.05 | 81 | 1008.7 |
| 20260506154504 | 18 | 241 | 6.4 | 14.5 | 0.03 | 0.03 | 0.03 | 80 | 1008.8 |
| 20260506154004 | 18 | 269 | 4.8 | 19.3 | 0.03 | 0.03 | 0.03 | 80 | 1008.6 |
| 20260506153503 | 18 | 235 | 8.0 | 14.5 | 0.03 | 0.03 | 0.03 | 79 | 1008.6 |
| 20260506152504 | 18 | 240 | 8.0 | 19.3 | 0.03 | 0.03 | 0.03 | 77 | 1008.5 |
| 20260506152004 | 18 | 245 | 9.7 | 14.5 | 0.00 | 0.00 | 0.00 | 77 | 1008.6 |
| 20260506151504 | 18 | 268 | 8.0 | 16.1 | 0.00 | 0.00 | 0.00 | 76 | 1008.6 |
| 20260506151004 | 18 | 247 | 6.4 | 25.7 | 0.00 | 0.00 | 0.00 | 74 | 1008.9 |
| 20260506150505 | 19 | 229 | 8.0 | 19.3 | 0.00 | 0.00 | 0.00 | 73 | 1008.9 |
| 20260506144504 | 19 | 263 | 9.7 | 19.3 | 0.00 | 0.00 | 0.00 | 72 | 1008.7 |
| 20260506143504 | 19 | 261 | 14.5 | 20.9 | 0.00 | 0.00 | 0.00 | 71 | 1008.9 |
| 20260506143004 | 19 | 251 | 9.7 | 19.3 | 0.00 | 0.00 | 0.00 | 71 | 1008.8 |
| 20260506142504 | 19 | 262 | 12.9 | 27.4 | 0.00 | 0.00 | 0.00 | 71 | 1008.7 |
| 20260506142005 | 19 | 252 | 9.7 | 25.7 | 0.00 | 0.00 | 0.00 | 72 | 1008.6 |
| 20260506141005 | 19 | 261 | 11.3 | 27.4 | 0.00 | 0.00 | 0.00 | 72 | 1008.7 |
| 20260506140505 | 19 | 254 | 8.0 | 22.5 | 0.00 | 0.00 | 0.00 | 72 | 1008.8 |
| 20260506140004 | 19 | 255 | 14.5 | 24.1 | 0.00 | 0.00 | 0.00 | 72 | 1008.6 |
| 20260506135004 | 19 | 258 | 8.0 | 20.9 | 0.00 | 0.00 | 0.00 | 72 | 1008.9 |
| 20260506134504 | 19 | 243 | 17.7 | 33.8 | 0.00 | 0.00 | 0.00 | 72 | 1008.9 |
| 20260506134004 | 19 | 250 | 14.5 | 20.9 | 0.00 | 0.00 | 0.00 | 72 | 1008.9 |
| 20260506133504 | 18 | 235 | 14.5 | 27.4 | 0.00 | 0.00 | 0.00 | 72 | 1009.0 |
| 20260506133004 | 18 | 239 | 14.5 | 29.0 | 0.00 | 0.00 | 0.00 | 72 | 1009.1 |
| 20260506132505 | 18 | 249 | 11.3 | 24.1 | 0.00 | 0.00 | 0.00 | 72 | 1009.0 |
| 20260506132005 | 18 | 228 | 16.1 | 27.4 | 0.00 | 0.00 | 0.00 | 73 | 1008.9 |
| 20260506131004 | 18 | 274 | 9.7 | 19.3 | 0.00 | 0.00 | 0.00 | 74 | 1009.2 |
| 20260506130005 | 18 | 246 | 11.3 | 20.9 | 0.00 | 0.03 | 0.00 | 74 | 1009.0 |
| 20260506125504 | 18 | 269 | 4.8 | 12.9 | 0.00 | 0.03 | 0.00 | 75 | 1008.7 |
| 20260506125004 | 18 | 258 | 9.7 | 19.3 | 0.00 | 0.03 | 0.00 | 75 | 1008.7 |
| 20260506124504 | 18 | 237 | 9.7 | 24.1 | 0.00 | 0.03 | 0.00 | 75 | 1008.6 |
| 20260506124004 | 18 | 268 | 9.7 | 19.3 | 0.00 | 0.03 | 0.00 | 75 | 1008.6 |
| 20260506123504 | 18 | 240 | 12.9 | 22.5 | 0.00 | 0.03 | 0.00 | 75 | 1008.7 |
| 20260506123004 | 18 | 247 | 11.3 | 19.3 | 0.00 | 0.03 | 0.00 | 76 | 1008.7 |
| 20260506122504 | 18 | 237 | 8.0 | 19.3 | 0.00 | 0.03 | 0.00 | 76 | 1008.8 |
| 20260506122004 | 18 | 252 | 11.3 | 19.3 | 0.00 | 0.03 | 0.00 | 76 | 1008.9 |
| 20260506121004 | 18 | 242 | 8.0 | 19.3 | 0.00 | 0.03 | 0.00 | 76 | 1008.9 |
| 20260506120504 | 18 | 233 | 11.3 | 22.5 | 0.00 | 0.03 | 0.00 | 76 | 1009.0 |
| 20260506120005 | 18 | 237 | 9.7 | 19.3 | 0.00 | 0.03 | 0.00 | 76 | 1009.1 |
| 20260506115504 | 18 | 261 | 9.7 | 20.9 | 0.00 | 0.03 | 0.00 | 76 | 1009.1 |
| 20260506115004 | 18 | 219 | 11.3 | 22.5 | 0.00 | 0.03 | 0.00 | 77 | 1009.1 |
| 20260506113505 | 17 | 219 | 8.0 | 12.9 | 0.00 | 0.03 | 0.00 | 77 | 1009.1 |
| 20260506113004 | 17 | 254 | 9.7 | 16.1 | 0.00 | 0.03 | 0.00 | 77 | 1009.0 |
| 20260506112504 | 17 | 244 | 8.0 | 19.3 | 0.00 | 0.03 | 0.00 | 78 | 1009.1 |
| 20260506112003 | 17 | 245 | 8.0 | 19.3 | 0.00 | 0.03 | 0.00 | 78 | 1009.1 |
| 20260506111504 | 17 | 245 | 8.0 | 22.5 | 0.00 | 0.03 | 0.00 | 78 | 1009.1 |
| 20260506111004 | 17 | 259 | 8.0 | 16.1 | 0.00 | 0.03 | 0.00 | 78 | 1009.0 |
| 20260506110504 | 17 | 251 | 9.7 | 20.9 | 0.00 | 0.03 | 0.00 | 78 | 1009.0 |
| 20260506110004 | 17 | 247 | 9.7 | 16.1 | 0.00 | 0.03 | 0.00 | 79 | 1009.0 |
| 20260506105503 | 17 | 234 | 11.3 | 19.3 | 0.00 | 0.03 | 0.00 | 79 | 1008.9 |
| 20260506105004 | 17 | 234 | 8.0 | 14.5 | 0.00 | 0.03 | 0.00 | 79 | 1008.8 |
| 20260506104504 | 17 | 221 | 8.0 | 16.1 | 0.00 | 0.03 | 0.00 | 79 | 1008.8 |
| 20260506104004 | 17 | 236 | 4.8 | 16.1 | 0.00 | 0.03 | 0.00 | 79 | 1009.0 |
| 20260506103504 | 17 | 233 | 4.8 | 12.9 | 0.00 | 0.03 | 0.00 | 79 | 1009.0 |
| 20260506103004 | 17 | 250 | 9.7 | 20.9 | 0.00 | 0.03 | 0.00 | 79 | 1009.0 |
| 20260506102004 | 17 | 235 | 9.7 | 20.9 | 0.00 | 0.03 | 0.00 | 79 | 1008.9 |
| 20260506101504 | 17 | 231 | 8.0 | 14.5 | 0.00 | 0.03 | 0.00 | 79 | 1008.7 |
| 20260506101004 | 17 | 257 | 6.4 | 12.9 | 0.00 | 0.03 | 0.00 | 79 | 1008.8 |
| 20260506100504 | 17 | 246 | 4.8 | 14.5 | 0.00 | 0.03 | 0.00 | 79 | 1008.8 |
| 20260506100004 | 17 | 232 | 11.3 | 22.5 | 0.00 | 0.03 | 0.00 | 79 | 1008.7 |
| 20260506095004 | 17 | 241 | 9.7 | 19.3 | 0.00 | 0.03 | 0.00 | 79 | 1008.6 |
| 20260506094504 | 17 | 252 | 6.4 | 14.5 | 0.00 | 0.03 | 0.00 | 79 | 1008.6 |
| 20260506094004 | 17 | 278 | 3.2 | 14.5 | 0.00 | 0.03 | 0.00 | 79 | 1008.6 |
| 20260506093004 | 17 | 245 | 6.4 | 19.3 | 0.00 | 0.03 | 0.00 | 79 | 1008.7 |
| 20260506092504 | 17 | 242 | 4.8 | 12.9 | 0.00 | 0.03 | 0.00 | 79 | 1008.7 |
| 20260506092004 | 17 | 229 | 4.8 | 11.3 | 0.00 | 0.03 | 0.00 | 79 | 1008.7 |
| 20260506091504 | 17 | 232 | 9.7 | 14.5 | 0.00 | 0.03 | 0.00 | 79 | 1008.8 |
| 20260506091004 | 17 | 245 | 6.4 | 14.5 | 0.00 | 0.03 | 0.00 | 79 | 1008.9 |
| 20260506090504 | 17 | 247 | 4.8 | 19.3 | 0.00 | 0.03 | 0.00 | 78 | 1008.9 |
| 20260506090004 | 17 | 231 | 9.7 | 16.1 | 0.00 | 0.03 | 0.00 | 78 | 1008.8 |
| 20260506085504 | 17 | 261 | 6.4 | 12.9 | 0.00 | 0.03 | 0.00 | 78 | 1008.9 |
| 20260506085004 | 17 | 254 | 6.4 | 19.3 | 0.00 | 0.03 | 0.00 | 78 | 1008.9 |
| 20260506084504 | 17 | 252 | 8.0 | 19.3 | 0.00 | 0.03 | 0.00 | 78 | 1008.9 |
| 20260506084004 | 17 | 242 | 8.0 | 12.9 | 0.00 | 0.03 | 0.00 | 78 | 1008.9 |
| 20260506083504 | 17 | 246 | 8.0 | 16.1 | 0.00 | 0.03 | 0.00 | 77 | 1008.9 |
| 20260506082504 | 17 | 227 | 4.8 | 12.9 | 0.00 | 0.03 | 0.00 | 77 | 1008.9 |
| 20260506081503 | 17 | 242 | 8.0 | 19.3 | 0.00 | 0.03 | 0.00 | 76 | 1009.0 |
| 20260506081005 | 18 | 241 | 8.0 | 16.1 | 0.00 | 0.03 | 0.00 | 76 | 1009.0 |
| 20260506073504 | 18 | 242 | 9.7 | 19.3 | 0.00 | 0.03 | 0.00 | 74 | 1008.9 |
| 20260506073004 | 18 | 237 | 8.0 | 19.3 | 0.00 | 0.03 | 0.00 | 73 | 1008.9 |
| 20260506072004 | 18 | 241 | 8.0 | 12.9 | 0.00 | 0.03 | 0.00 | 72 | 1008.9 |
| 20260506071504 | 18 | 252 | 9.7 | 19.3 | 0.00 | 0.03 | 0.00 | 72 | 1009.0 |
| 20260506071004 | 18 | 237 | 8.0 | 16.1 | 0.00 | 0.03 | 0.00 | 71 | 1008.9 |
| 20260506070504 | 18 | 239 | 6.4 | 16.1 | 0.00 | 0.03 | 0.00 | 71 | 1009.0 |
| 20260506062505 | 18 | 236 | 4.8 | 19.3 | 0.00 | 0.03 | 0.00 | 69 | 1009.4 |
| 20260506061504 | 18 | 236 | 9.7 | 16.1 | 0.00 | 0.03 | 0.00 | 68 | 1009.4 |
| 20260506061005 | 18 | 257 | 4.8 | 12.9 | 0.00 | 0.03 | 0.00 | 68 | 1009.4 |
| 20260506060504 | 18 | 249 | 8.0 | 16.1 | 0.00 | 0.03 | 0.00 | 68 | 1009.3 |
| 20260506051004 | 19 | 243 | 6.4 | 16.1 | 0.00 | 0.03 | 0.00 | 65 | 1009.6 |
| 20260506050504 | 19 | 242 | 9.7 | 14.5 | 0.00 | 0.03 | 0.00 | 64 | 1009.8 |
| 20260506045004 | 20 | 260 | 9.7 | 16.1 | 0.00 | 0.03 | 0.00 | 64 | 1009.8 |
| 20260506044504 | 20 | 252 | 8.0 | 19.3 | 0.00 | 0.03 | 0.00 | 64 | 1009.8 |
| 20260506044004 | 20 | 242 | 9.7 | 20.9 | 0.00 | 0.03 | 0.00 | 63 | 1009.8 |
| 20260506043504 | 20 | 263 | 8.0 | 19.3 | 0.00 | 0.03 | 0.00 | 63 | 1009.7 |
| 20260506043004 | 20 | 246 | 11.3 | 19.3 | 0.00 | 0.03 | 0.00 | 63 | 1009.8 |
| 20260506042504 | 20 | 251 | 8.0 | 14.5 | 0.00 | 0.03 | 0.00 | 62 | 1009.8 |
| 20260506042004 | 20 | 263 | 8.0 | 14.5 | 0.00 | 0.03 | 0.00 | 62 | 1009.8 |
| 20260506041504 | 20 | 278 | 4.8 | 16.1 | 0.00 | 0.03 | 0.00 | 62 | 1009.8 |
| 20260506041004 | 20 | 252 | 8.0 | 12.9 | 0.00 | 0.03 | 0.00 | 62 | 1009.7 |
| 20260506040505 | 20 | 252 | 4.8 | 19.3 | 0.00 | 0.03 | 0.00 | 61 | 1009.7 |
| 20260506040004 | 20 | 249 | 9.7 | 19.3 | 0.00 | 0.03 | 0.00 | 61 | 1009.7 |
| 20260506035504 | 20 | 248 | 8.0 | 24.1 | 0.00 | 0.03 | 0.03 | 61 | 1009.7 |
| 20260506035004 | 20 | 237 | 9.7 | 20.9 | 0.00 | 0.03 | 0.03 | 61 | 1009.7 |
| 20260506034504 | 20 | 248 | 6.4 | 16.1 | 0.00 | 0.03 | 0.03 | 60 | 1009.7 |
| 20260506033504 | 20 | 276 | 8.0 | 20.9 | 0.00 | 0.03 | 0.03 | 60 | 1009.8 |
| 20260506033005 | 20 | 255 | 9.7 | 16.1 | 0.00 | 0.03 | 0.03 | 60 | 1009.8 |
| 20260506032504 | 20 | 243 | 8.0 | 19.3 | 0.00 | 0.03 | 0.03 | 60 | 1009.7 |
| 20260506030504 | 21 | 255 | 9.7 | 19.3 | 0.00 | 0.03 | 0.03 | 58 | 1009.7 |
| 20260506030004 | 21 | 231 | 11.3 | 24.1 | 0.00 | 0.03 | 0.03 | 58 | 1009.6 |
| 20260506025505 | 21 | 244 | 11.3 | 25.7 | 0.00 | 0.03 | 0.03 | 57 | 1009.6 |
| 20260506025004 | 21 | 254 | 9.7 | 29.0 | 0.00 | 0.03 | 0.03 | 57 | 1009.6 |
| 20260506024004 | 21 | 237 | 9.7 | 22.5 | 0.00 | 0.03 | 0.03 | 56 | 1009.6 |
| 20260506023504 | 21 | 261 | 9.7 | 19.3 | 0.00 | 0.03 | 0.03 | 55 | 1009.6 |
| 20260506023004 | 21 | 243 | 12.9 | 35.4 | 0.00 | 0.03 | 0.03 | 54 | 1009.5 |
| 20260506022004 | 22 | 247 | 16.1 | 32.2 | 0.00 | 0.03 | 0.03 | 53 | 1009.5 |
| 20260506021504 | 22 | 256 | 14.5 | 35.4 | 0.00 | 0.03 | 0.03 | 52 | 1009.5 |
| 20260506021004 | 22 | 256 | 9.7 | 25.7 | 0.00 | 0.03 | 0.03 | 51 | 1009.4 |
| 20260506020505 | 22 | 241 | 14.5 | 25.7 | 0.00 | 0.03 | 0.03 | 50 | 1009.5 |
| 20260506020004 | 22 | 264 | 11.3 | 25.7 | 0.00 | 0.03 | 0.03 | 49 | 1009.4 |
| 20260506015504 | 22 | 253 | 11.3 | 25.7 | 0.00 | 0.03 | 0.03 | 48 | 1009.4 |
| 20260506015004 | 22 | 247 | 11.3 | 19.3 | 0.00 | 0.03 | 0.03 | 47 | 1009.2 |
| 20260506014504 | 23 | 248 | 11.3 | 24.1 | 0.00 | 0.03 | 0.03 | 46 | 1009.2 |
| 20260506014004 | 23 | 272 | 12.9 | 29.0 | 0.00 | 0.03 | 0.03 | 45 | 1009.2 |
| 20260506013504 | 23 | 242 | 8.0 | 35.4 | 0.00 | 0.03 | 0.03 | 45 | 1009.2 |
| 20260506012504 | 23 | 231 | 11.3 | 24.1 | 0.00 | 0.03 | 0.03 | 44 | 1008.9 |
| 20260506011504 | 23 | 221 | 12.9 | 22.5 | 0.00 | 0.03 | 0.03 | 44 | 1008.8 |
| 20260506011004 | 23 | 224 | 11.3 | 25.7 | 0.00 | 0.03 | 0.03 | 44 | 1008.9 |
| 20260506010504 | 23 | 248 | 6.4 | 24.1 | 0.00 | 0.03 | 0.03 | 43 | 1008.6 |
| 20260506010004 | 23 | 251 | 11.3 | 19.3 | 0.00 | 0.03 | 0.03 | 43 | 1008.6 |
| 20260506005004 | 24 | 235 | 9.7 | 16.1 | 0.00 | 0.03 | 0.03 | 43 | 1008.6 |
| 20260506004004 | 24 | 251 | 14.5 | 24.1 | 0.00 | 0.03 | 0.03 | 42 | 1008.5 |
| 20260506003504 | 24 | 247 | 11.3 | 25.7 | 0.00 | 0.03 | 0.03 | 41 | 1008.5 |
| 20260506003004 | 24 | 245 | 9.7 | 19.3 | 0.00 | 0.03 | 0.03 | 40 | 1008.5 |
| 20260506002004 | 24 | 230 | 9.7 | 32.2 | 0.00 | 0.03 | 0.03 | 39 | 1008.3 |
| 20260506001504 | 25 | 240 | 4.8 | 22.5 | 0.00 | 0.03 | 0.03 | 38 | 1008.3 |
| 20260506001004 | 25 | 245 | 11.3 | 19.3 | 0.00 | 0.03 | 0.03 | 38 | 1008.3 |
| 20260506000504 | 25 | 241 | 11.3 | 24.1 | 0.00 | 0.03 | 0.03 | 37 | 1008.3 |
| 20260506000004 | 25 | 254 | 9.7 | 24.1 | 0.00 | 0.03 | 0.03 | 36 | 1008.2 |
| 20260505234504 | 25 | 240 | 8.0 | 22.5 | 0.00 | 0.03 | 0.03 | 35 | 1008.0 |
| 20260505234004 | 25 | 250 | 12.9 | 25.7 | 0.00 | 0.03 | 0.03 | 35 | 1008.0 |
| 20260505233504 | 25 | 243 | 9.7 | 24.1 | 0.00 | 0.03 | 0.03 | 35 | 1008.0 |
| 20260505233004 | 25 | 237 | 11.3 | 27.4 | 0.00 | 0.03 | 0.03 | 34 | 1007.9 |
| 20260505232504 | 25 | 247 | 14.5 | 29.0 | 0.00 | 0.03 | 0.03 | 34 | 1008.0 |
| 20260505232005 | 25 | 246 | 11.3 | 32.2 | 0.00 | 0.03 | 0.03 | 34 | 1007.8 |
| 20260505231004 | 25 | 239 | 16.1 | 25.7 | 0.00 | 0.03 | 0.03 | 33 | 1007.7 |
| 20260505230503 | 26 | 262 | 14.5 | 32.2 | 0.00 | 0.03 | 0.03 | 33 | 1007.7 |
| 20260505225504 | 26 | 244 | 9.7 | 24.1 | 0.00 | 0.03 | 0.03 | 33 | 1007.6 |
| 20260505225004 | 26 | 250 | 14.5 | 27.4 | 0.00 | 0.03 | 0.03 | 32 | 1007.4 |
| 20260505224504 | 26 | 237 | 14.5 | 27.4 | 0.00 | 0.03 | 0.03 | 32 | 1007.4 |
| 20260505224004 | 26 | 262 | 9.7 | 27.4 | 0.00 | 0.03 | 0.03 | 32 | 1007.3 |
| 20260505223004 | 26 | 251 | 11.3 | 22.5 | 0.00 | 0.03 | 0.03 | 31 | 1007.4 |
| 20260505221504 | 26 | 283 | 16.1 | 27.4 | 0.00 | 0.03 | 0.03 | 30 | 1007.4 |
| 20260505221004 | 26 | 235 | 16.1 | 37.0 | 0.00 | 0.03 | 0.03 | 30 | 1007.5 |
| 20260505220004 | 26 | 237 | 14.5 | 33.8 | 0.00 | 0.03 | 0.03 | 30 | 1007.3 |
| 20260505215504 | 26 | 250 | 11.3 | 27.4 | 0.00 | 0.03 | 0.03 | 30 | 1007.2 |
| 20260505215004 | 26 | 269 | 16.1 | 37.0 | 0.00 | 0.03 | 0.03 | 30 | 1007.3 |
| 20260505214504 | 26 | 250 | 19.3 | 38.6 | 0.00 | 0.03 | 0.03 | 30 | 1007.3 |
| 20260505214004 | 26 | 259 | 22.5 | 40.2 | 0.00 | 0.03 | 0.03 | 30 | 1007.2 |
| 20260505213505 | 26 | 256 | 14.5 | 32.2 | 0.00 | 0.03 | 0.03 | 30 | 1007.1 |
| 20260505212504 | 27 | 249 | 14.5 | 29.0 | 0.00 | 0.03 | 0.03 | 30 | 1006.8 |
| 20260505212004 | 27 | 268 | 11.3 | 22.5 | 0.00 | 0.03 | 0.03 | 29 | 1006.9 |
| 20260505211504 | 27 | 245 | 16.1 | 33.8 | 0.00 | 0.03 | 0.03 | 29 | 1006.9 |
| 20260505211004 | 27 | 241 | 16.1 | 29.0 | 0.00 | 0.03 | 0.03 | 31 | 1006.8 |
| 20260505210004 | 27 | 246 | 24.1 | 38.6 | 0.00 | 0.03 | 0.03 | 30 | 1006.7 |
| 20260505205504 | 27 | 250 | 20.9 | 41.8 | 0.00 | 0.03 | 0.03 | 30 | 1006.7 |
| 20260505205004 | 27 | 237 | 22.5 | 37.0 | 0.00 | 0.03 | 0.03 | 29 | 1006.9 |
| 20260505204004 | 27 | 238 | 25.7 | 37.0 | 0.00 | 0.03 | 0.03 | 30 | 1006.9 |
| 20260505203504 | 27 | 242 | 14.5 | 41.8 | 0.00 | 0.03 | 0.03 | 30 | 1007.0 |
| 20260505203004 | 27 | 243 | 24.1 | 40.2 | 0.00 | 0.03 | 0.03 | 30 | 1007.1 |
| 20260505202004 | 27 | 230 | 22.5 | 51.5 | 0.00 | 0.03 | 0.03 | 31 | 1007.1 |
| 20260505201504 | 27 | 243 | 19.3 | 32.2 | 0.00 | 0.03 | 0.03 | 32 | 1007.0 |
| 20260505200504 | 27 | 247 | 16.1 | 32.2 | 0.00 | 0.03 | 0.03 | 32 | 1007.1 |
| 20260505200004 | 27 | 256 | 19.3 | 32.2 | 0.00 | 0.03 | 0.03 | 31 | 1007.1 |
| 20260505195504 | 27 | 248 | 22.5 | 37.0 | 0.00 | 0.03 | 0.03 | 32 | 1007.2 |
| 20260505194504 | 27 | 234 | 19.3 | 32.2 | 0.00 | 0.03 | 0.03 | 32 | 1007.2 |
| 20260505194004 | 28 | 227 | 14.5 | 32.2 | 0.00 | 0.03 | 0.03 | 33 | 1007.3 |
| 20260505193504 | 27 | 257 | 16.1 | 29.0 | 0.00 | 0.03 | 0.03 | 32 | 1007.3 |
| 20260505193004 | 27 | 265 | 16.1 | 35.4 | 0.00 | 0.03 | 0.03 | 32 | 1007.4 |
| 20260505192504 | 27 | 274 | 19.3 | 41.8 | 0.00 | 0.03 | 0.03 | 32 | 1007.4 |
| 20260505191004 | 28 | 259 | 19.3 | 35.4 | 0.00 | 0.03 | 0.03 | 31 | 1007.6 |
| 20260505190004 | 28 | 231 | 19.3 | 32.2 | 0.00 | 0.03 | 0.03 | 32 | 1007.6 |
| 20260505185004 | 28 | 247 | 16.1 | 37.0 | 0.00 | 0.03 | 0.03 | 33 | 1007.6 |
| 20260505184504 | 27 | 243 | 14.5 | 29.0 | 0.00 | 0.03 | 0.03 | 34 | 1008.0 |
| 20260505183504 | 27 | 233 | 16.1 | 37.0 | 0.00 | 0.03 | 0.03 | 34 | 1008.1 |
| 20260505183005 | 27 | 253 | 20.9 | 35.4 | 0.00 | 0.03 | 0.03 | 35 | 1008.0 |
| 20260505182004 | 27 | 251 | 19.3 | 35.4 | 0.00 | 0.03 | 0.03 | 35 | 1008.2 |
| 20260505181504 | 27 | 235 | 19.3 | 29.0 | 0.00 | 0.03 | 0.03 | 35 | 1008.3 |
| 20260505175504 | 27 | 275 | 11.3 | 25.7 | 0.00 | 0.03 | 0.03 | 37 | 1008.4 |
| 20260505174504 | 27 | 262 | 17.7 | 40.2 | 0.00 | 0.03 | 0.03 | 36 | 1008.4 |
| 20260505174005 | 27 | 255 | 14.5 | 27.4 | 0.00 | 0.03 | 0.03 | 37 | 1008.5 |
| 20260505173504 | 27 | 250 | 14.5 | 25.7 | 0.00 | 0.03 | 0.03 | 38 | 1008.5 |
| 20260505172504 | 27 | 226 | 11.3 | 29.0 | 0.00 | 0.03 | 0.03 | 39 | 1009.0 |
| 20260505172004 | 26 | 240 | 8.0 | 20.9 | 0.00 | 0.03 | 0.03 | 41 | 1009.0 |
| 20260505171503 | 26 | 255 | 14.5 | 22.5 | 0.00 | 0.03 | 0.03 | 41 | 1009.0 |
| 20260505171004 | 26 | 274 | 16.1 | 32.2 | 0.00 | 0.03 | 0.03 | 41 | 1009.0 |
| 20260505170504 | 26 | 253 | 12.9 | 24.1 | 0.00 | 0.03 | 0.03 | 41 | 1009.1 |
| 20260505170004 | 26 | 236 | 9.7 | 29.0 | 0.00 | 0.03 | 0.03 | 41 | 1009.0 |
| 20260505165004 | 26 | 253 | 8.0 | 19.3 | 0.00 | 0.03 | 0.03 | 41 | 1009.1 |
| 20260505164504 | 26 | 278 | 8.0 | 19.3 | 0.00 | 0.03 | 0.03 | 43 | 1009.3 |
| 20260505164004 | 26 | 270 | 8.0 | 25.7 | 0.00 | 0.03 | 0.03 | 42 | 1009.3 |
| 20260505163504 | 26 | 269 | 14.5 | 27.4 | 0.00 | 0.03 | 0.03 | 43 | 1009.4 |
| 20260505163005 | 25 | 218 | 9.7 | 19.3 | 0.00 | 0.03 | 0.03 | 43 | 1009.5 |